Weather History for Pensacola NAS, FL

Change the Weather History Date:

Monday, January 28, 2013

  Actual Average Record
Temperature  
Mean Temperature 61 °F -  
Max Temperature 69 °F 59 °F 46 °F (2014)
Min Temperature 53 °F 43 °F 26 °F (2014)
Degree Days  
Heating Degree Days 4    
Growing Degree Days 11 (Base 50)    
Moisture  
Dew Point 61 °F    
Average Humidity 95    
Maximum Humidity 100    
Minimum Humidity 81    
Precipitation  
Precipitation 0.00 in - - ()
Sea Level Pressure  
Sea Level Pressure 30.24 in    
Wind  
Wind Speed 6 mph (East)    
Max Wind Speed 13 mph    
Max Gust Speed -    
Visibility 7 miles    
Events Fog , Rain    
Averages and records for this station are not official NWS values.
T = Trace of Precipitation, MM = Missing Value Source: NWS Daily Summary

Daily Weather History Graph

Daily Weather History Graph

Search for Another Location

Airport:

Trip Planner

Search our weather history database for the weather conditions in past years. The results will help you decide how hot, cold, wet, or windy it might be!

Date:

Astronomy

Jan. 28, 2013 Rise Set
Actual Time 6:42 AM CST 5:22 PM CST
Civil Twilight 6:16 AM CST 5:48 PM CST
Nautical Twilight 5:48 AM CST 6:16 PM CST
Astronomical Twilight 5:19 AM CST 6:45 PM CST
Moon 7:05 PM CST (1/28) 7:17 AM CST (1/28)
Length of Visible Light 11h 31m
Length of Day
10h 40m
Full, 98% of the Moon is Illuminated
Jan 28
Full
Feb 3
Last Quarter
Feb 10
New
Feb 17
First Quarter
Feb 25
Full

Hourly Weather History & Observations

Time (CST) Temp. Dew Point Humidity Pressure Visibility Wind Dir Wind Speed Gust Speed Precip Events Conditions
12:56 AM 61.0 °F 60.1 °F 97% 30.27 in 10.0 mi SSE 4.6 mph - N/A   Clear
1:56 AM 55.9 °F 55.9 °F 100% 30.27 in 4.0 mi Calm Calm - N/A   Clear
2:40 AM 55.4 °F 55.4 °F 100% 30.26 in 2.5 mi Calm Calm - 0.00 in   Clear
2:52 AM 55.4 °F 55.4 °F 100% 30.26 in 1.0 mi Calm Calm - 0.00 in   Clear
2:56 AM 54.0 °F 54.0 °F 100% 30.27 in 0.8 mi Calm Calm - 0.00 in   Partly Cloudy
3:24 AM 53.6 °F 53.6 °F 100% 30.25 in 2.0 mi Calm Calm - 0.00 in   Scattered Clouds
3:30 AM 53.6 °F 53.6 °F 100% 30.25 in 0.8 mi ENE 3.5 mph - 0.00 in   Mist
3:39 AM 55.4 °F 55.4 °F 100% 30.25 in 0.2 mi ENE 4.6 mph - 0.00 in Fog Fog
3:46 AM 55.4 °F 55.4 °F 100% 30.24 in 0.2 mi NE 3.5 mph - 0.00 in Fog Fog
3:55 AM 55.0 °F 55.0 °F 100% 30.25 in 0.5 mi ENE 4.6 mph - 0.00 in Fog , Rain Light Rain
4:03 AM 57.2 °F 57.2 °F 100% 30.24 in 1.2 mi ENE 4.6 mph - 0.00 in   Overcast
4:07 AM 57.2 °F 57.2 °F 100% 30.24 in 2.5 mi ENE 3.5 mph - 0.00 in   Overcast
4:14 AM 59.0 °F 59.0 °F 100% 30.24 in 4.0 mi ENE 3.5 mph - 0.00 in   Overcast
4:56 AM 60.1 °F 60.1 °F 100% 30.25 in 6.0 mi East 4.6 mph - 0.00 in   Overcast
5:23 AM 62.6 °F 60.8 °F 94% 30.25 in 10.0 mi ESE 8.1 mph - N/A   Scattered Clouds
5:56 AM 63.0 °F 62.1 °F 97% 30.27 in 10.0 mi ESE 8.1 mph - N/A   Mostly Cloudy
6:56 AM 62.1 °F 62.1 °F 100% 30.27 in 7.0 mi East 5.8 mph - N/A   Mostly Cloudy
7:03 AM 62.6 °F 62.6 °F 100% 30.27 in 7.0 mi East 6.9 mph - N/A   Mostly Cloudy
7:56 AM 64.0 °F 63.0 °F 96% 30.28 in 8.0 mi ESE 8.1 mph - N/A   Mostly Cloudy
8:56 AM 66.0 °F 64.0 °F 93% 30.30 in 10.0 mi East 10.4 mph - N/A   Overcast
9:19 AM 64.4 °F 62.6 °F 94% 30.30 in 9.0 mi ENE 6.9 mph - N/A   Overcast
9:56 AM 66.0 °F 63.0 °F 90% 30.31 in 10.0 mi ENE 8.1 mph - N/A   Mostly Cloudy
10:56 AM 66.0 °F 63.0 °F 90% 30.30 in 10.0 mi East 8.1 mph - N/A   Overcast
11:56 AM 66.9 °F 63.0 °F 87% 30.28 in 10.0 mi East 11.5 mph - N/A   Overcast
12:49 PM 69.8 °F 64.4 °F 83% 30.25 in 10.0 mi East 12.7 mph - N/A   Overcast
12:56 PM 68.0 °F 64.0 °F 87% 30.25 in 10.0 mi East 11.5 mph - N/A   Overcast
1:50 PM 69.8 °F 64.4 °F 83% 30.23 in 10.0 mi ESE 10.4 mph - N/A   Overcast
1:56 PM 69.1 °F 63.0 °F 81% 30.24 in 10.0 mi East 9.2 mph - N/A   Mostly Cloudy
2:19 PM 69.8 °F 64.4 °F 83% 30.23 in 10.0 mi ESE 11.5 mph - N/A   Mostly Cloudy
2:56 PM 69.1 °F 64.0 °F 84% 30.23 in 10.0 mi East 10.4 mph - N/A   Mostly Cloudy
3:30 PM 66.2 °F 64.4 °F 94% 30.22 in 9.0 mi East 11.5 mph - N/A   Overcast
3:56 PM 66.9 °F 64.0 °F 90% 30.22 in 9.0 mi East 9.2 mph - N/A   Mostly Cloudy
4:26 PM 66.2 °F 64.4 °F 94% 30.22 in 8.0 mi East 8.1 mph - N/A   Overcast
4:56 PM 66.0 °F 64.0 °F 93% 30.22 in 8.0 mi East 11.5 mph - N/A   Overcast
5:25 PM 64.4 °F 64.4 °F 100% 30.21 in 8.0 mi East 9.2 mph - N/A   Overcast
5:56 PM 64.0 °F 63.0 °F 96% 30.22 in 8.0 mi East 8.1 mph - N/A   Scattered Clouds
6:56 PM 64.0 °F 63.0 °F 96% 30.22 in 8.0 mi East 9.2 mph - N/A   Mostly Cloudy
7:42 PM 64.4 °F 64.4 °F 100% 30.21 in 8.0 mi East 9.2 mph - N/A   Mostly Cloudy
7:56 PM 64.9 °F 64.9 °F 100% 30.21 in 8.0 mi East 9.2 mph - N/A   Mostly Cloudy
8:56 PM 66.0 °F 64.9 °F 96% 30.20 in 10.0 mi East 11.5 mph - N/A   Mostly Cloudy
9:03 PM 66.2 °F 64.4 °F 94% 30.20 in 9.0 mi ESE 9.2 mph - N/A   Overcast
9:56 PM 66.0 °F 66.0 °F 100% 30.20 in 8.0 mi ESE 9.2 mph - N/A   Overcast
10:56 PM 66.0 °F 66.0 °F 100% 30.19 in 7.0 mi ESE 10.4 mph - N/A   Overcast
11:56 PM 66.0 °F 66.0 °F 100% 30.18 in 7.0 mi ESE 9.2 mph - N/A   Overcast